This is the latest recevied weather packets stored in our database for station/object VK2KGV-15. If no packets are shown the sender has not sent any weather packets the latest 10 day(s).
| Time | Temp. | Humidity | Pressure | Rain* | Wind** | Luminosity | Snow |
|---|---|---|---|---|---|---|---|
| 1778089537 | 4.44° C | 91% | 1018 hPa | 0.25 mm | - | - | - |
| 1778088935 | 4.44° C | 91% | 1018 hPa | 0.25 mm | - | - | - |
| 1778088331 | 5° C | 91% | 1018 hPa | 0.25 mm | - | - | - |
| 1778087125 | 5° C | 91% | 1018 hPa | 0.25 mm | - | - | - |
| 1778085919 | 5.56° C | 91% | 1018 hPa | 0.25 mm | - | - | - |
| 1778076269 | 8.89° C | 89% | 1018.1 hPa | 0.25 mm | - | - | - |
| 1778075063 | 8.89° C | 88% | 1018.1 hPa | 0.25 mm | - | - | - |
| 1778073857 | 9.44° C | 88% | 1018.1 hPa | 0.25 mm | - | - | - |
| 1778070238 | 10.56° C | 88% | 1018.5 hPa | 0.25 mm | - | - | - |
| 1778067826 | 11.11° C | 86% | 1018.8 hPa | 0.25 mm | - | - | - |
| 1778067223 | 11.11° C | 86% | 1018.7 hPa | 0.25 mm | - | - | - |
| 1778066620 | 11.67° C | 86% | 1018.6 hPa | 0.25 mm | - | - | - |
| 1778065413 | 11.67° C | 84% | 1018.5 hPa | 0.25 mm | - | - | - |
| 1778063001 | 12.78° C | 81% | 1018.4 hPa | 0.25 mm | - | - | - |
| 1778059382 | 15° C | 76% | 1017.9 hPa | 0.25 mm | - | - | - |
| 1778057573 | 16.11° C | 72% | 1017.6 hPa | 0.25 mm | - | - | - |
| 1778054557 | 18.89° C | 65% | 1016.7 hPa | 0.25 mm | - | - | - |
| 1778050939 | 21.11° C | 60% | 1016 hPa | 0.25 mm | - | - | - |
| 1778049732 | 22.22° C | 59% | 1015.8 hPa | 0.25 mm | - | - | - |
| 1778049129 | 22.22° C | 58% | 1015.6 hPa | 0.25 mm | - | - | - |
| 1778046717 | 23.33° C | 54% | 1015.5 hPa | 0.25 mm | - | - | - |
| 1778044908 | 24.44° C | 50% | 1015.4 hPa | 0.25 mm | - | - | - |
| 1778042495 | 24.44° C | 50% | 1015.5 hPa | 0.25 mm | - | - | - |
| 1778041289 | 25° C | 49% | 1015.5 hPa | 0.25 mm | - | - | - |
| 1778040082 | 25° C | 50% | 1015.6 hPa | 0.25 mm | - | - | - |
* Rain since midnight (hover to see other rain measurements)
** Current wind speed in m/s (hover to see current wind gust speed)